User: anonymous   Login
Location: Unspecified
(0.0000°N, 0.0000°E)
Time: 16:12:12
(UTC+00:00)
Language:

S-56A Canister/Altair - Orbit

View from above orbital plane
View from above orbital plane
View from above satellite
View from above satellite

Ground track
Ground track

The orbit data is extracted from the following two-line orbital elements,

1 00082U 61004B   15207.57668853 -.00000092  00000-0 -26377-4 0  9996
2 00082 038.8558 335.9482 1171162 097.4211 276.0789 12.25704998588395
Epoch (UTC): 26 July 2015 13:50:25
Eccentricity: 0.1171162
inclination: 38.8558°
perigee height: 637 km
apogee height: 2498 km
right ascension of ascending node: 335.9482°
argument of perigee: 97.4211°
revolutions per day: 12.25704998
mean anomaly at epoch: 276.0789°
orbit number at epoch: 58839

The dashed part of the orbit path shows where the satellite is in the earth's shadow,  

DLR